Lapse_Rate
6.1 6.1 6.1 6.1 6.1 6.0 6.1 6.2 6.1 6.0 6.1 6.0 5.9 5.9 5.8 5.8 5.7 5.5 5.6 5.8 5.8 5.8 5.9 5.9 5.8 5.8 5.9 5.9 5.7 5.4 5.2 5.0 5.0 5.0 5.3 5.2 5.3 5.6 5.7 5.7 5.6 5.5 5.4 5.3 5.4
6.0 6.1 6.2 6.1 6.1 6.1 6.0 6.1 6.1 6.1 6.1 6.0 6.0 6.0 5.9 5.8 5.7 5.7 5.9 5.9 5.7 5.5 5.5 5.6 5.8 6.0 6.0 5.8 5.6 5.4 5.3 5.2 5.2 5.1 5.1 5.0 5.1 5.3 5.8 5.7 5.4 5.5 5.5 5.7 5.6
6.0 6.1 6.2 6.2 6.3 6.2 6.1 6.2 6.2 6.1 6.1 6.1 6.1 6.1 6.0 5.8 5.8 5.9 5.8 5.7 5.5 5.5 5.4 5.6 5.8 6.0 6.1 5.9 5.8 5.6 5.5 5.3 5.3 5.1 5.1 5.0 5.1 5.2 5.6 5.8 5.5 5.5 5.4 5.5 5.8
6.0 6.3 6.5 6.5 6.6 6.4 6.3 6.3 6.3 6.2 6.1 6.1 6.1 6.0 5.9 5.8 5.8 5.6 5.6 5.4 5.4 5.4 5.5 5.7 5.9 6.0 6.1 5.9 5.6 5.7 5.4 5.2 5.1 5.1 5.1 5.2 5.2 5.1 5.1 5.4 5.4 5.4 5.4 5.5 5.6
6.2 6.5 6.7 6.8 6.8 6.7 6.4 6.2 6.1 6.0 6.1 6.0 6.0 5.9 5.7 5.6 5.7 5.5 5.5 5.4 5.4 5.5 5.5 5.8 5.8 5.9 5.7 5.6 5.5 5.4 5.4 5.3 5.3 5.2 5.2 5.3 5.4 5.4 5.2 5.2 5.4 5.2 5.4 5.3 5.4
6.3 6.4 6.7 6.7 6.7 6.7 6.5 6.3 6.1 6.1 6.1 6.0 5.9 5.8 5.7 5.6 5.5 5.4 5.4 5.5 5.6 5.7 5.7 5.7 5.8 5.8 5.6 5.5 5.5 5.6 5.4 5.4 5.4 5.2 5.3 5.2 5.4 5.4 5.2 5.3 5.3 5.0 5.0 5.0 5.3
6.3 6.5 6.6 6.6 6.6 6.6 6.5 6.4 6.3 6.2 6.1 6.0 6.0 5.8 5.5 5.7 5.5 5.3 5.5 5.5 5.6 5.8 5.8 5.7 5.7 5.6 5.5 5.6 5.5 5.5 5.6 5.5 5.3 5.3 5.5 5.5 5.5 5.2 5.2 5.4 5.3 5.2 4.9 5.0 5.3
6.5 6.5 6.4 6.5 6.5 6.4 6.4 6.3 6.3 6.2 6.1 6.1 6.0 5.9 5.8 5.6 5.4 5.4 5.5 5.6 5.7 5.7 5.7 5.6 5.5 5.6 5.6 5.5 5.5 5.3 5.2 5.4 5.3 5.3 5.4 5.4 5.7 5.2 5.2 5.4 5.5 5.5 5.2 5.1 5.1
6.5 6.6 6.5 6.5 6.5 6.4 6.3 6.2 6.2 6.2 6.2 6.1 6.0 5.9 5.7 5.5 5.4 5.4 5.5 5.6 5.6 5.6 5.5 5.6 5.6 5.7 5.7 5.7 5.5 5.1 5.2 5.2 5.3 5.4 5.3 5.4 5.9 5.3 5.6 5.7 5.6 5.5 5.3 5.3 5.2
6.6 6.7 6.7 6.6 6.6 6.5 6.4 6.2 6.2 6.2 6.3 6.2 6.1 5.9 5.7 5.6 5.5 5.5 5.6 5.6 5.5 5.6 5.7 5.6 5.6 5.5 5.7 5.7 5.3 5.1 5.1 5.4 5.2 5.3 5.7 5.7 6.3 5.7 5.9 5.9 5.6 5.6 5.6 5.5 5.3
6.8 6.8 6.8 6.7 6.6 6.6 6.5 6.2 6.1 6.0 6.1 6.2 6.0 5.9 5.7 5.7 5.5 5.7 5.7 5.7 5.6 5.7 5.7 5.8 5.6 5.8 5.5 5.4 5.3 5.3 5.1 5.0 5.6 5.5 5.8 6.1 6.4 6.2 6.0 6.1 5.9 5.9 5.9 5.8 5.6
6.7 6.7 6.7 6.7 6.7 6.6 6.6 6.4 6.2 6.0 6.1 6.0 6.0 5.9 5.9 5.8 5.7 5.7 5.8 5.8 5.7 5.9 6.0 5.9 5.7 5.5 5.3 5.2 5.4 5.4 5.4 5.4 5.7 5.6 5.8 6.4 6.5 6.4 6.3 6.2 6.1 6.0 5.8 5.7 5.6
6.6 6.6 6.6 6.7 6.7 6.7 6.6 6.5 6.3 6.2 6.2 5.9 5.9 5.9 5.9 5.9 5.9 5.8 5.9 5.9 5.8 5.8 5.8 5.7 5.5 5.5 5.5 5.4 5.7 5.6 5.6 5.5 5.2 5.9 6.2 6.4 6.9 6.8 6.5 6.4 6.2 6.1 5.9 5.8 5.7
6.6 6.5 6.6 6.7 6.7 6.8 6.8 6.7 6.5 6.2 6.1 5.9 6.0 5.9 5.8 5.9 5.9 6.0 6.0 6.0 5.9 5.8 5.9 5.7 5.6 5.5 5.4 5.3 5.2 5.4 5.4 5.5 5.7 5.6 5.9 6.0 6.3 6.9 6.8 6.4 6.3 6.1 6.1 6.0 5.8
6.5 6.5 6.6 6.7 6.8 6.8 6.8 6.7 6.5 6.2 5.8 5.9 6.0 5.9 5.9 5.8 5.8 5.9 6.0 5.9 5.9 5.9 5.7 5.9 5.9 5.6 5.3 5.1 5.1 5.1 5.1 5.4 5.8 5.8 5.7 5.9 6.1 7.0 7.0 6.8 6.4 6.1 6.0 5.9 5.8
6.3 6.4 6.5 6.5 6.7 6.8 6.9 6.7 6.4 6.1 5.8 6.1 5.9 5.9 5.9 6.0 6.1 6.0 6.1 6.0 6.1 6.1 6.2 6.1 5.9 5.6 5.3 5.1 5.0 4.8 5.3 5.1 5.3 5.7 4.9 6.0 6.3 7.0 6.9 6.7 6.6 6.3 6.2 6.2 6.1
6.2 6.2 6.2 6.3 6.4 6.6 6.6 6.5 6.4 6.4 6.2 6.0 6.1 6.2 6.2 6.2 6.2 6.3 6.1 6.1 5.9 5.9 6.0 6.1 5.9 5.7 5.4 5.4 5.1 5.0 5.3 4.9 4.1 4.3 4.8 5.6 5.6 7.0 6.8 6.5 6.2 6.1 6.2 6.2 6.2
6.1 6.2 6.2 6.1 6.3 6.3 6.4 6.4 6.4 6.3 6.2 6.2 6.2 6.2 6.2 6.2 6.2 6.0 5.9 5.7 5.5 5.3 5.5 5.4 5.8 5.5 5.3 5.2 4.8 4.6 4.7 4.8 4.2 3.7 4.3 5.8 5.4 6.9 7.0 6.6 6.2 6.2 6.2 6.3 6.4
6.2 6.1 6.1 6.1 6.2 6.3 6.3 6.4 6.5 6.5 6.3 6.2 6.1 6.1 6.2 6.0 5.8 5.8 5.8 5.7 5.5 5.4 5.3 5.2 5.6 5.5 5.4 5.2 5.2 4.9 4.6 4.5 4.3 4.2 3.6 5.1 6.1 6.9 6.8 6.4 6.1 6.0 5.8 5.9 6.0
6.2 6.2 6.1 6.1 6.1 6.2 6.3 6.3 6.4 6.3 6.2 6.1 6.1 6.1 6.0 5.9 5.8 5.7 5.8 5.8 5.7 5.7 5.4 5.1 5.0 5.7 5.5 5.2 5.3 4.9 4.7 4.7 4.7 4.5 4.1 4.8 5.9 6.9 6.9 6.4 6.0 5.9 6.0 6.0 6.0
6.3 6.2 6.2 6.1 6.1 6.2 6.3 6.3 6.3 6.2 6.1 6.1 6.0 6.0 5.9 5.8 5.8 5.8 5.9 5.9 5.8 5.6 5.4 5.0 4.5 5.7 5.5 5.1 4.9 4.9 4.7 4.9 4.9 5.1 4.4 3.6 5.1 6.8 6.7 6.4 6.3 6.4 6.3 6.0 5.9
6.2 6.2 6.1 6.2 6.2 6.1 6.1 6.2 6.2 6.2 6.1 6.1 6.1 6.0 5.9 5.8 5.8 5.9 6.1 6.1 5.9 5.7 5.4 5.1 4.7 4.4 5.4 5.2 4.8 4.9 5.0 4.9 4.7 4.7 4.7 4.6 4.3 6.3 6.4 6.5 6.2 6.0 5.8 5.7 5.7
6.2 6.3 6.2 6.2 6.2 6.2 6.2 6.2 6.3 6.3 6.2 6.1 6.0 5.9 5.8 5.9 5.7 6.0 6.0 6.1 6.1 5.9 5.6 5.1 4.9 4.5 5.1 5.0 4.7 4.9 5.2 5.1 4.6 4.6 4.6 4.8 5.7 6.4 6.5 6.1 6.1 6.2 6.1 6.1 6.1
6.0 6.1 6.3 6.1 6.1 6.1 6.2 6.3 6.4 6.3 6.2 6.2 6.1 6.0 5.9 6.0 5.9 5.9 6.0 5.8 6.1 6.1 5.7 5.1 4.9 5.2 5.2 5.5 4.7 4.4 5.0 5.5 4.9 4.5 4.7 4.8 4.9 5.8 6.3 6.0 6.0 6.1 6.3 6.2 6.0
6.0 5.9 6.1 6.1 6.0 6.1 6.2 6.3 6.4 6.3 6.2 6.2 6.1 6.1 5.9 5.9 5.9 6.0 6.0 6.0 5.8 5.8 5.6 5.2 5.0 5.0 4.7 4.7 4.5 4.3 4.8 5.4 5.3 5.4 4.8 6.5 5.0 6.6 5.7 5.6 5.6 5.7 5.9 6.0 5.9
6.0 5.9 5.9 6.0 6.1 5.9 6.0 6.4 6.4 6.3 6.1 6.1 6.0 5.9 6.0 6.1 6.0 5.7 5.6 5.9 5.6 5.7 5.7 5.3 5.3 5.0 4.3 4.7 4.7 4.5 5.1 5.4 5.5 5.7 5.5 6.0 6.2 6.5 6.3 5.9 5.6 5.5 5.6 5.5 5.6
5.9 5.9 5.7 5.8 6.2 6.1 6.2 6.1 5.9 5.9 5.9 6.1 6.1 6.0 6.1 6.0 5.6 5.7 5.7 5.9 6.0 5.8 5.6 4.9 4.9 4.9 4.4 4.8 4.4 4.2 6.1 6.5 6.9 6.6 6.6 6.1 6.5 6.0 5.6 5.2 4.8 4.9 5.3 5.7 5.6
Wind_Speed
19 19 19 16 16 13 9 6 6 5 4 4 4 4 6 10 4 5 9 6 8 19 16 7 5 7 3 4 4 3 4 2 1 2 2 1 2 2 3 5 3 3 3 4 4
20 20 19 18 17 14 10 7 6 5 4 4 3 3 6 8 1 8 4 13 15 14 6 8 7 8 4 5 4 5 4 2 1 3 3 2 3 2 3 2 3 4 5 6 7
22 22 21 19 18 14 10 8 6 5 4 4 4 5 6 5 4 4 15 17 19 15 3 2 2 0 5 5 5 2 3 4 1 2 5 4 2 2 7 3 3 4 3 4 6
22 22 22 21 20 15 10 8 7 6 6 6 6 8 8 1 2 4 16 17 14 12 4 6 7 4 4 5 4 5 3 3 3 1 1 3 3 1 3 2 7 8 5 4 6
22 22 22 20 19 15 11 9 8 8 7 7 8 10 2 6 1 7 16 14 8 6 6 4 7 3 3 3 3 4 2 2 1 1 1 2 3 4 4 6 8 8 6 6 5
22 22 21 18 17 15 11 8 7 7 7 8 10 7 4 5 4 9 12 6 5 5 6 7 3 2 4 3 4 0 1 3 4 3 2 1 2 0 2 7 9 7 6 5 5
23 22 20 17 17 15 11 7 7 7 7 8 12 3 8 2 4 10 8 2 4 2 3 2 2 3 2 2 2 2 1 2 4 3 2 2 4 6 5 8 9 7 6 5 5
23 23 21 19 18 15 10 7 7 7 8 7 8 3 3 2 5 5 6 2 5 2 1 2 3 4 3 0 4 4 4 4 2 5 2 2 7 4 6 9 8 7 6 6 3
25 26 24 20 18 15 12 7 5 7 7 7 3 4 1 2 4 4 2 4 6 2 2 2 3 4 6 3 4 6 2 3 8 7 3 3 7 3 7 6 7 6 6 6 5
25 25 24 22 19 17 11 4 6 7 2 1 1 3 5 5 5 5 4 3 2 5 4 6 5 4 5 5 1 3 4 4 4 1 2 5 14 7 9 8 8 7 6 6 5
24 25 23 23 18 15 5 3 5 5 9 3 2 2 3 8 3 4 3 4 3 6 3 4 7 2 3 1 2 4 3 4 4 3 6 3 8 12 7 7 7 7 7 5 4
24 25 24 21 14 10 5 5 2 2 4 3 2 2 1 0 4 7 6 5 5 3 4 6 2 3 4 2 2 3 2 4 6 3 1 6 10 3 3 2 6 8 7 6 4
26 27 26 23 6 7 5 3 1 1 4 3 2 2 3 3 1 6 5 2 5 5 4 4 2 2 1 3 6 4 2 3 5 6 2 7 5 2 2 2 1 3 5 5 7
27 28 27 22 5 1 3 5 2 1 4 6 4 4 3 1 2 1 2 2 5 1 1 1 2 3 2 1 2 4 3 4 6 3 3 4 4 4 2 4 5 7 7 7 7
26 26 25 13 2 3 1 2 1 2 3 2 5 0 5 4 2 7 1 3 1 3 2 3 3 3 2 2 2 7 4 5 2 2 3 3 2 5 2 4 6 9 9 9 9
25 25 20 5 3 1 2 3 2 5 3 4 3 6 3 4 6 6 5 6 0 1 2 1 1 1 2 3 2 6 4 4 3 3 2 2 3 5 3 4 1 1 6 9 8
27 24 5 2 1 0 3 2 5 4 2 4 3 3 2 3 5 4 4 7 4 5 7 6 1 1 1 4 4 8 5 3 5 4 4 3 1 8 3 1 1 4 7 8 7
31 11 1 1 1 2 2 4 2 1 2 1 2 4 1 3 2 6 2 4 4 4 3 4 7 2 3 1 2 3 3 3 4 3 5 3 5 4 4 5 4 4 6 5 7
20 3 2 2 2 3 4 4 6 5 2 1 1 1 3 2 1 5 2 3 1 2 3 4 5 1 0 1 2 2 2 3 1 1 1 3 7 4 4 6 5 6 3 8 9
2 3 2 2 4 3 4 4 3 1 1 1 2 1 1 3 3 4 1 3 3 2 3 2 5 2 1 1 2 1 2 1 2 3 5 5 6 5 4 3 4 5 8 9 7
3 3 1 4 2 4 3 4 3 2 2 2 3 1 1 2 1 2 2 2 5 4 3 4 3 5 1 3 3 1 1 1 2 4 3 4 6 5 6 5 3 4 5 5 6
2 3 1 2 3 1 2 2 1 3 2 2 2 3 4 3 3 3 5 5 6 5 2 2 3 4 9 2 3 3 4 4 3 3 4 3 8 5 6 4 2 4 4 4 5
2 3 1 2 2 1 2 1 3 4 4 4 4 4 3 4 3 5 4 2 7 7 7 5 2 4 6 3 2 4 5 5 3 3 10 5 6 2 5 5 4 5 4 5 7
2 3 4 4 0 5 4 4 3 2 3 3 3 2 2 3 4 3 3 4 6 6 5 5 4 7 7 7 4 8 10 7 9 5 9 18 22 16 15 12 3 2 5 6 7
1 3 1 3 2 2 3 5 4 4 3 5 2 7 7 4 3 5 4 3 4 5 5 4 6 6 12 12 11 17 20 16 13 18 14 26 15 19 5 4 2 4 6 7 7
1 1 3 2 2 1 1 5 7 3 7 5 5 5 8 7 9 7 5 4 7 2 6 3 5 2 5 12 16 20 21 20 19 19 17 22 26 2 4 2 3 3 6 6 7
1 1 3 2 1 3 4 5 5 5 6 5 9 4 6 15 6 5 5 5 6 8 8 6 4 2 7 2 6 13 16 17 5 6 7 10 2 3 4 5 4 5 5 6 7
Wind_Direction
12 12 12 7 1 359 355 347 352 349 335 329 347 347 339 353 10 41 38 274 299 310 325 303 10 344 47 45 43 89 62 74 116 165 178 52 122 29 69 94 43 56 82 70 10
10 9 8 4 357 356 359 1 0 352 350 348 351 348 334 344 55 46 297 325 327 326 355 4 352 354 25 16 25 67 85 168 268 168 159 103 118 165 107 122 87 80 70 43 29
8 6 5 4 360 359 3 12 15 25 18 19 2 344 329 341 62 325 333 344 342 347 218 276 272 347 48 29 5 46 131 166 237 135 148 149 146 153 128 233 182 177 138 43 32
6 4 3 4 3 6 11 24 31 40 35 24 5 343 333 341 77 285 339 346 350 356 35 30 28 46 71 52 351 90 48 151 196 43 112 174 137 212 176 154 149 134 128 93 45
6 4 4 3 1 4 10 24 30 32 29 12 351 336 39 42 35 303 343 345 4 10 41 35 47 45 72 83 65 69 133 79 140 103 108 137 240 238 197 160 120 123 104 96 73
1 1 3 1 358 1 1 9 15 16 7 358 347 339 71 68 284 322 338 342 5 33 21 33 57 323 86 58 81 78 166 174 206 206 247 212 299 279 188 160 144 138 124 107 84
1 360 360 359 354 353 349 346 348 351 349 346 351 40 65 184 321 330 349 334 354 32 39 26 328 101 81 62 3 105 36 291 222 195 252 113 279 235 178 173 167 156 143 124 96
357 354 353 350 347 345 341 330 327 332 332 338 343 64 94 285 313 349 341 335 357 5 62 305 353 79 55 163 32 32 47 2 315 156 225 101 267 268 177 169 190 160 155 138 126
353 351 350 347 347 345 339 321 319 319 311 338 24 88 10 331 9 315 351 329 311 324 313 342 44 69 24 63 26 11 311 301 324 197 112 183 274 253 186 195 200 175 164 157 153
348 348 345 343 347 351 339 303 312 339 357 314 52 37 11 316 304 335 302 337 343 332 28 51 49 64 22 50 42 301 327 307 271 296 223 246 263 258 213 208 207 177 176 172 172
349 347 344 343 352 357 11 20 21 354 39 79 284 160 332 299 277 329 348 352 14 49 30 18 60 29 296 323 222 247 232 265 265 232 338 251 277 287 248 203 180 188 189 191 184
348 347 344 343 351 21 58 75 83 157 71 359 334 331 259 306 0 327 5 59 44 32 357 29 36 268 293 349 236 306 302 296 295 273 295 299 288 344 31 219 181 188 196 198 182
345 346 344 340 346 41 75 78 329 358 96 329 312 326 306 24 20 310 32 340 50 34 17 130 247 296 19 16 7 318 243 278 257 315 234 326 324 318 11 42 136 207 185 191 200
345 345 344 343 66 147 53 322 8 353 78 313 342 345 347 80 355 294 27 77 24 39 292 195 339 355 342 60 81 311 210 280 294 35 296 29 289 303 241 254 232 225 209 209 204
342 343 346 26 147 55 292 348 54 55 42 325 316 262 313 64 294 346 5 35 73 305 79 276 349 3 348 280 140 245 329 288 246 147 36 333 67 267 329 273 256 229 220 223 211
340 340 344 7 49 33 12 67 60 46 266 339 346 354 16 11 337 321 22 32 27 351 339 282 331 130 260 298 234 307 347 55 48 87 18 252 111 281 224 221 268 26 215 217 214
337 333 353 339 332 172 102 56 38 101 345 332 321 1 314 321 330 39 45 14 36 17 5 333 299 322 15 335 19 15 23 352 1 7 231 256 7 245 250 245 249 271 244 218 200
333 337 38 183 45 116 61 57 104 171 233 270 260 324 347 357 312 344 70 21 27 55 36 20 332 16 358 91 297 338 109 125 292 286 285 322 234 253 215 222 250 274 272 205 213
334 356 356 258 140 97 80 68 191 205 194 291 336 55 313 357 343 21 42 175 211 53 64 15 281 287 47 46 96 331 55 172 205 292 346 258 284 277 215 260 253 255 213 228 225
13 353 273 137 135 67 78 201 204 224 159 144 194 188 311 303 5 26 218 182 196 175 143 180 295 239 248 75 24 165 170 356 33 309 290 287 280 243 218 237 226 256 243 248 240
29 21 276 120 85 50 144 207 178 166 183 190 204 234 238 283 268 271 246 204 191 189 150 158 159 284 8 197 193 12 289 190 139 159 237 298 262 218 200 184 180 281 338 314 267
22 345 306 127 47 40 119 185 134 187 199 212 164 189 205 216 244 249 228 217 180 156 194 186 169 264 246 285 241 210 210 151 139 247 232 190 267 285 197 109 74 68 46 356 326
2 260 319 83 159 229 248 229 217 167 212 190 225 208 198 219 248 213 234 185 169 159 176 182 229 310 333 4 288 217 196 194 223 185 226 243 256 121 108 117 96 85 354 334 327
3 336 321 47 28 142 177 222 226 226 229 193 202 146 169 245 235 275 244 222 201 206 175 149 208 192 226 234 197 257 248 217 226 238 260 235 266 268 267 298 99 333 329 330 330
89 257 195 291 302 210 168 184 189 227 218 181 229 214 182 213 228 225 234 254 196 202 173 173 235 231 249 264 266 266 268 253 232 242 240 272 257 264 273 170 221 326 328 342 340
185 24 355 275 294 244 211 227 210 217 158 233 214 215 197 208 200 214 197 199 221 129 168 204 261 229 263 250 255 264 264 259 249 249 249 257 269 20 112 55 323 342 349 348 338
312 326 121 263 233 125 224 226 241 170 224 196 205 184 208 235 234 238 222 217 228 176 191 185 209 173 275 195 304 277 251 240 200 219 210 225 244 72 31 1 348 345 7 352 349